Regional Weather Roundup
Issued by NWS

Home | Current Version | Previous Version | Text Only | Print | Product List | Glossary Off
Versions: 1 2 3 4 5 6 7 8 9 10 11 12 13 14 15 16 17 18 19 20 21 22 23 24 25 26 27 28 29 30 31 32 33 34 35 36 37 38 39 40 41 42 43 44 45 46 47 48 49 50

000
ASUS43 KLSX 291957
RWRMO

WEATHER SUMMARY FOR MISSOURI
NATIONAL WEATHER SERVICE SPRINGFIELD MO
300 PM CDT WED MAR 29 2017

NOTE: "FAIR" INDICATES FEW OR NO CLOUDS BELOW 12,000 FEET WITH NO
       SIGNIFICANT WEATHER AND/OR OBSTRUCTIONS TO VISIBILITY.
       CURRENT SKY AND/OR WEATHER CONDITIONS ARE NOT AVAILABLE FOR
       CHILLICOTHE AND FARMINGTON.

MOZ001>031-035>038-043-044-053-054-292100-
...NORTHERN AND WESTERN MISSOURI...

CITY           SKY/WX    TMP DP  RH WIND       PRES   REMARKS
KANSAS CTY INT CLOUDY    53  51  93 E18       29.72F
LEE`S SUMMIT   CLOUDY    58  55  90 E10       29.71S
ST JOSEPH      CLOUDY    51  50  96 E10       29.74F
CHILLICOTHE      N/A     52  49  89 E9G23     29.78F

$$
MOZ066>068-077>081-088>096-101>105-292100-
...SOUTHWEST MISSOURI...

CITY           SKY/WX    TMP DP  RH WIND       PRES   REMARKS
SPRINGFIELD    PTSUNNY   70  58  65 S21G31    29.71R
JOPLIN         CLOUDY    73  57  57 S21G33    29.66F
BRANSON        CLOUDY    72  55  56 S15G29    29.76R

$$
MOZ032>034-039>042-045>050-055>058-069>072-292100-
...CENTRAL MISSOURI...

CITY           SKY/WX    TMP DP  RH WIND       PRES   REMARKS
COLUMBIA       NOT AVBL
JEFFERSON CITY CLOUDY    63  53  70 E17G26    29.77F
ROLLA          CLOUDY    68  56  65 SE18G29   29.77F
SEDALIA        CLOUDY    62  57  83 E13       29.73F
WARRENSBURG    CLOUDY    59  54  82 E9        29.71F

$$
MOZ051-052-059>065-292100-
...EAST CENTRAL MISSOURI...

CITY           SKY/WX    TMP DP  RH WIND       PRES   REMARKS
ST LOUIS INTL  CLOUDY    63  52  67 E21       29.88F
ST CHARLES     CLOUDY    59  54  82 E21       29.88F

$$
MOZ072>076-082>087-097>100-106>115-292100-
...SOUTH CENTRAL AND SOUTHEAST MISSOURI...

CITY           SKY/WX    TMP DP  RH WIND       PRES   REMARKS
CAPE GIRARDEAU PTSUNNY   71  58  63 SE14      29.86F
POPLAR BLUFF   CLOUDY    73  64  73 SE10      29.84F
WEST PLAINS    CLOUDY    71  59  65 SE15G24   29.80F

$$



USA.gov is the U.S. government's official web portal to all federal, state and local government web resources and services.